C/2010 S1 ( LINEAR )

Japanese version
Home page
Updated on April 13, 2013

---------------------------------------------------------------------

* Profile

Discovery Date September 21, 2010
Magnitude 18.4 mag
Discoverer Lincoln Laboratory Near-Earth Asteroid Research project

* Pictures

* Orbital Elements

Epoch 2013 May 28.0 TT = JDT 2456440.5
T 2013 May 20.31041 TT                                  MPC
q   5.8998220            (2000.0)            P               Q
z  -0.0003246      Peri.  118.61617     +0.53546736     -0.22397955
 +/-0.0000002      Node    93.43043     -0.69561700     -0.66375915
e   1.0019153      Incl.  125.33583     +0.47894853     -0.71362242
From 4699 observations 2010 Sept. 21-2013 Apr. 3, mean residual 0".4.

* Finding Charts

* Magnitudes Graph

        m1 = -2.0 + 5 log d + 15.0 log r

---------------------------------------------------------------------

The orbital elements are published on M.P.E.C. 2013-G31.
The charts are made with StellaNavigator Ver.8 (AstroArts).
The magnitudes graphs are made with Comet for Windows.

---------------------------------------------------------------------

Copyright(C) Seiichi Yoshida (comet@aerith.net). All rights reserved.